This demonstration page uses our WeatherBlox Daily Observations layout. Learn more.

Hourly Observations for August 26, 2020

Temp ( °F °C ) Dew Point ( °F °C ) Humidity (%) Winds ( mph kmh ) Pressure ( in mb ) Visibility ( mi km ) Precip ( " mm )
12:51 am 00:51 Clear 83 28.3 43 6.1 24 24 ESE 8 13 29.7 1006 10 16.0934 0 0
1:51 am 01:51 Clear 84 28.9 48 8.9 29 29 E 9 15 29.68 1005 10 16.0934 0 0
2:51 am 02:51 Clear 85 29.4 49 9.4 29 29 E 8 13 29.68 1005 10 16.0934 0 0
3:51 am 03:51 Clear 81 27.2 46 7.8 29 29 SE 9 15 29.69 1005 10 16.0934 0 0
4:51 am 04:51 Clear 82 27.8 46 7.8 28 28 SE 10 17 29.69 1006 10 16.0934 0 0
5:51 am 05:51 Sunny 78 25.6 44 6.7 30 30 SE 10 17 29.72 1006 10 16.0934 0 0
6:51 am 06:51 Sunny 78 25.6 42 5.6 28 28 SSE 12 19 29.74 1007 10 16.0934 0 0
7:51 am 07:51 Sunny 83 28.3 44 6.7 25 25 SSE 14 22 29.74 1007 10 16.0934 0 0
8:51 am 08:51 Sunny 91 32.8 46 7.8 21 21 SE 9 15 29.73 1007 10 16.0934 0 0
9:51 am 09:51 Sunny 94 34.4 46 7.8 19 19 SE 9 15 29.73 1007 10 16.0934 0 0
10:51 am 10:51 Sunny 98 36.7 40 4.4 13 13 SE 10 17 29.72 1006 10 16.0934 0 0
11:51 am 11:51 Sunny 99 37.2 39 3.9 12 12 SE 5 7 29.69 1006 10 16.0934 0 0
12:51 pm 12:51 Sunny 102 38.9 40 4.4 12 12 S 9 15 29.65 1004 10 16.0934 0 0
1:51 pm 13:51 Sunny 102 38.9 41 5 12 12 VRB 3 6 29.62 1003 10 16.0934 0 0
2:51 pm 14:51 Sunny 103 39.4 42 5.6 12 12 undefined N/A 29.59 1002 10 16.0934 0 0
3:51 pm 15:51 Sunny 105 40.6 41 5 11 11 SSE 8 13 29.57 1001 10 16.0934 0 0
4:51 pm 16:51 Mostly Sunny 104 40 41 5 12 12 VRB 3 6 29.55 1001 10 16.0934 0 0
5:51 pm 17:51 Sunny 102 38.9 41 5 12 12 WSW 7 11 29.56 1001 10 16.0934 0 0
6:51 pm 18:51 Clear 100 37.8 42 5.6 14 14 NW 6 9 29.57 1002 10 16.0934 0 0
7:51 pm 19:51 Mostly Clear 98 36.7 41 5 14 14 NW 3 6 29.57 1002 10 16.0934 0 0
8:51 pm 20:51 Mostly Clear 96 35.6 43 6.1 16 16 W 6 9 29.59 1002 10 16.0934 0 0
9:51 pm 21:51 Clear 95 35 48 8.9 20 20 NNE 13 20 29.61 1003 10 16.0934 0 0
10:51 pm 22:51 Clear 94 34.4 48 8.9 21 21 N 6 9 29.62 1003 10 16.0934 0 0
11:51 pm 23:51 Clear 87 30.6 51 10.6 29 29 Calm 29.63 1003 10 16.0934 0 0

Powered by AerisWeather